Time,TemperatureF,DewpointF,PressureIn,WindDirection,WindDirectionDegrees,WindSpeedMPH,WindSpeedGustMPH,Humidity,HourlyPrecipIn,Conditions,Clouds,dailyrainin,SoftwareType,DateUTC
2014-09-15 00:02:00,46.2,38.7,29.93,NNE,23,4.0,4.0,75,0.00,,,0.00,WUHU216HW,2014-09-15 06:02:00,
2014-09-15 00:07:00,46.5,39.0,29.93,NNE,23,0.0,4.0,75,0.00,,,0.00,WUHU216HW,2014-09-15 06:07:00,
2014-09-15 00:12:00,46.5,39.0,29.92,NNE,23,0.0,1.5,75,0.00,,,0.00,WUHU216HW,2014-09-15 06:12:00,
2014-09-15 00:17:00,46.2,38.7,29.93,NNE,23,2.6,2.6,75,0.00,,,0.00,WUHU216HW,2014-09-15 06:17:00,
2014-09-15 00:22:00,46.0,38.5,29.93,NNE,23,0.0,2.6,75,0.00,,,0.00,WUHU216HW,2014-09-15 06:22:00,
2014-09-15 00:27:00,45.6,38.2,29.93,NNE,23,0.0,0.0,75,0.00,,,0.00,WUHU216HW,2014-09-15 06:27:00,
2014-09-15 00:32:00,45.5,38.0,29.93,NNE,23,0.0,0.0,75,0.00,,,0.00,WUHU216HW,2014-09-15 06:32:00,
2014-09-15 00:37:00,45.3,37.8,29.93,NNE,23,0.0,1.5,75,0.00,,,0.00,WUHU216HW,2014-09-15 06:37:00,
2014-09-15 00:43:00,45.1,38.0,29.94,NNE,23,0.0,1.5,76,0.00,,,0.00,WUHU216HW,2014-09-15 06:43:00,
2014-09-15 00:48:00,44.9,37.8,29.94,NNE,23,0.0,0.0,76,0.00,,,0.00,WUHU216HW,2014-09-15 06:48:00,
2014-09-15 00:53:00,44.9,38.1,29.94,NNE,23,1.1,1.1,77,0.00,,,0.00,WUHU216HW,2014-09-15 06:53:00,
2014-09-15 00:58:00,44.9,38.1,29.94,NNE,23,7.8,7.8,77,0.00,,,0.00,WUHU216HW,2014-09-15 06:58:00,
2014-09-15 01:03:00,44.9,38.1,29.94,NNE,23,0.0,7.8,77,0.00,,,0.00,WUHU216HW,2014-09-15 07:03:00,
2014-09-15 01:08:00,44.6,37.8,29.94,NNE,23,0.0,0.0,77,0.00,,,0.00,WUHU216HW,2014-09-15 07:08:00,
2014-09-15 01:13:00,44.2,37.1,29.94,NNE,23,0.0,0.0,76,0.00,,,0.00,WUHU216HW,2014-09-15 07:13:00,
2014-09-15 01:18:00,43.5,36.4,29.94,NNE,23,0.0,0.0,76,0.00,,,0.00,WUHU216HW,2014-09-15 07:18:00,
2014-09-15 01:23:00,42.8,35.7,29.94,NNE,23,0.0,0.0,76,0.00,,,0.00,WUHU216HW,2014-09-15 07:23:00,
2014-09-15 01:28:00,42.4,35.3,29.94,NNE,23,0.0,0.0,76,0.00,,,0.00,WUHU216HW,2014-09-15 07:28:00,
2014-09-15 01:33:00,41.9,35.1,29.94,NNE,23,0.0,0.0,77,0.00,,,0.00,WUHU216HW,2014-09-15 07:33:00,
2014-09-15 01:38:00,41.1,34.4,29.94,NNE,23,0.0,0.0,77,0.00,,,0.00,WUHU216HW,2014-09-15 07:38:00,
2014-09-15 01:43:00,40.8,34.0,29.94,NNE,23,0.0,0.0,77,0.00,,,0.00,WUHU216HW,2014-09-15 07:43:00,
2014-09-15 01:48:00,40.6,34.2,29.95,NNE,23,0.0,0.0,78,0.00,,,0.00,WUHU216HW,2014-09-15 07:48:00,
2014-09-15 01:53:00,40.6,34.5,29.95,NNE,23,0.0,0.0,79,0.00,,,0.00,WUHU216HW,2014-09-15 07:53:00,
2014-09-15 01:58:00,40.6,34.9,29.95,NNE,23,0.0,0.0,80,0.00,,,0.00,WUHU216HW,2014-09-15 07:58:00,
2014-09-15 02:03:00,40.4,34.7,29.95,NNE,23,0.0,0.0,80,0.00,,,0.00,WUHU216HW,2014-09-15 08:03:00,
2014-09-15 02:08:00,40.2,34.8,29.96,NNE,23,0.0,0.0,81,0.00,,,0.00,WUHU216HW,2014-09-15 08:08:00,
2014-09-15 02:13:00,40.1,34.7,29.96,NNE,23,0.0,0.0,81,0.00,,,0.00,WUHU216HW,2014-09-15 08:13:00,
2014-09-15 02:18:00,39.9,34.5,29.95,NNE,23,0.0,0.0,81,0.00,,,0.00,WUHU216HW,2014-09-15 08:18:00,
2014-09-15 02:23:00,39.7,34.3,29.96,NNE,23,0.0,0.0,81,0.00,,,0.00,WUHU216HW,2014-09-15 08:23:00,
2014-09-15 02:28:00,39.7,34.3,29.96,NNE,23,0.0,0.0,81,0.00,,,0.00,WUHU216HW,2014-09-15 08:28:00,
2014-09-15 02:33:00,39.7,34.3,29.96,NNE,23,0.0,0.0,81,0.00,,,0.00,WUHU216HW,2014-09-15 08:33:00,
2014-09-15 02:38:00,39.3,34.0,29.96,NNE,23,0.0,0.0,81,0.00,,,0.00,WUHU216HW,2014-09-15 08:38:00,
2014-09-15 02:43:00,39.0,33.7,29.96,NNE,23,0.0,0.0,81,0.00,,,0.00,WUHU216HW,2014-09-15 08:43:00,
2014-09-15 02:48:00,38.6,33.3,29.96,NNE,23,0.0,0.0,81,0.00,,,0.00,WUHU216HW,2014-09-15 08:48:00,
2014-09-15 02:53:00,38.4,33.1,29.96,NNE,23,0.0,0.0,81,0.00,,,0.00,WUHU216HW,2014-09-15 08:53:00,
2014-09-15 02:58:00,38.8,33.5,29.96,NNE,23,0.0,0.0,81,0.00,,,0.00,WUHU216HW,2014-09-15 08:58:00,
2014-09-15 03:03:00,39.0,34.0,29.96,NNE,23,0.0,0.0,82,0.00,,,0.00,WUHU216HW,2014-09-15 09:03:00,
2014-09-15 03:08:00,38.4,33.4,29.96,NNE,23,0.0,0.0,82,0.00,,,0.00,WUHU216HW,2014-09-15 09:08:00,
2014-09-15 03:13:00,37.9,32.9,29.96,NNE,23,0.0,0.0,82,0.00,,,0.00,WUHU216HW,2014-09-15 09:13:00,
2014-09-15 03:18:00,37.2,32.2,29.96,NNE,23,0.0,0.0,82,0.00,,,0.00,WUHU216HW,2014-09-15 09:18:00,
2014-09-15 03:23:00,36.6,31.6,29.96,NNE,23,0.0,0.0,82,0.00,,,0.00,WUHU216HW,2014-09-15 09:23:00,
2014-09-15 03:28:00,36.5,31.4,29.96,NNE,23,0.0,0.0,82,0.00,,,0.00,WUHU216HW,2014-09-15 09:28:00,
2014-09-15 03:33:00,36.5,31.4,29.96,NNE,23,0.0,0.0,82,0.00,,,0.00,WUHU216HW,2014-09-15 09:33:00,
2014-09-15 03:38:00,36.5,31.7,29.96,NNE,23,0.0,0.0,83,0.00,,,0.00,WUHU216HW,2014-09-15 09:38:00,
2014-09-15 03:43:00,36.3,31.6,29.96,NNE,23,0.0,0.0,83,0.00,,,0.00,WUHU216HW,2014-09-15 09:43:00,
2014-09-15 03:48:00,36.1,31.4,29.96,NNE,23,0.0,0.0,83,0.00,,,0.00,WUHU216HW,2014-09-15 09:48:00,
2014-09-15 03:53:00,36.3,31.8,29.96,NNE,23,0.0,0.0,84,0.00,,,0.00,WUHU216HW,2014-09-15 09:53:00,
2014-09-15 03:58:00,36.3,31.8,29.96,NNE,23,0.0,0.0,84,0.00,,,0.00,WUHU216HW,2014-09-15 09:58:00,
2014-09-15 04:03:00,36.3,31.8,29.96,NNE,23,0.0,0.0,84,0.00,,,0.00,WUHU216HW,2014-09-15 10:03:00,
2014-09-15 04:08:00,35.9,31.5,29.96,NNE,23,0.0,0.0,84,0.00,,,0.00,WUHU216HW,2014-09-15 10:08:00,
2014-09-15 04:13:00,35.7,31.3,29.96,NNE,23,0.0,0.0,84,0.00,,,0.00,WUHU216HW,2014-09-15 10:13:00,
2014-09-15 04:18:00,35.4,30.9,29.96,NNE,23,0.0,0.0,84,0.00,,,0.00,WUHU216HW,2014-09-15 10:18:00,
2014-09-15 04:23:00,35.7,31.3,29.96,NNE,23,0.0,0.0,84,0.00,,,0.00,WUHU216HW,2014-09-15 10:23:00,
2014-09-15 04:28:00,35.9,31.8,29.96,NNE,23,0.0,0.0,85,0.00,,,0.00,WUHU216HW,2014-09-15 10:28:00,
2014-09-15 04:33:00,36.3,32.1,29.96,NNE,23,0.0,0.0,85,0.00,,,0.00,WUHU216HW,2014-09-15 10:33:00,
2014-09-15 04:38:00,36.1,32.0,29.96,NNE,23,0.0,0.0,85,0.00,,,0.00,WUHU216HW,2014-09-15 10:38:00,
2014-09-15 04:43:00,35.9,31.8,29.97,NNE,23,0.0,0.0,85,0.00,,,0.00,WUHU216HW,2014-09-15 10:43:00,
2014-09-15 04:48:00,35.9,31.8,29.97,NNE,23,0.0,0.0,85,0.00,,,0.00,WUHU216HW,2014-09-15 10:48:00,
2014-09-15 04:53:00,36.1,32.2,29.96,NNE,23,0.0,0.0,86,0.00,,,0.00,WUHU216HW,2014-09-15 10:53:00,
2014-09-15 04:58:00,36.3,32.4,29.96,NNE,23,0.0,0.0,86,0.00,,,0.00,WUHU216HW,2014-09-15 10:58:00,
2014-09-15 05:03:00,36.5,32.6,29.97,NNE,23,0.0,0.0,86,0.00,,,0.00,WUHU216HW,2014-09-15 11:03:00,
2014-09-15 05:08:00,36.5,32.6,29.96,NNE,23,0.0,0.0,86,0.00,,,0.00,WUHU216HW,2014-09-15 11:08:00,
2014-09-15 05:13:00,36.5,32.6,29.96,NNE,23,0.0,0.0,86,0.00,,,0.00,WUHU216HW,2014-09-15 11:13:00,
2014-09-15 05:18:00,36.6,32.8,29.97,NNE,23,0.0,0.0,86,0.00,,,0.00,WUHU216HW,2014-09-15 11:18:00,
2014-09-15 05:23:00,36.3,32.4,29.97,NNE,23,0.0,0.0,86,0.00,,,0.00,WUHU216HW,2014-09-15 11:23:00,
2014-09-15 05:28:00,35.7,31.9,29.97,NNE,23,0.0,0.0,86,0.00,,,0.00,WUHU216HW,2014-09-15 11:28:00,
2014-09-15 05:33:00,35.2,31.3,29.96,NNE,23,0.0,0.0,86,0.00,,,0.00,WUHU216HW,2014-09-15 11:33:00,
2014-09-15 05:38:00,34.5,30.6,29.97,NNE,23,0.0,0.0,86,0.00,,,0.00,WUHU216HW,2014-09-15 11:38:00,
2014-09-15 05:43:00,34.3,30.2,29.97,NNE,23,0.0,0.0,85,0.00,,,0.00,WUHU216HW,2014-09-15 11:43:00,
2014-09-15 05:48:00,34.3,30.2,29.97,NNE,23,0.0,0.0,85,0.00,,,0.00,WUHU216HW,2014-09-15 11:48:00,
2014-09-15 05:53:00,34.3,30.4,29.97,NNE,23,0.0,0.0,86,0.00,,,0.00,WUHU216HW,2014-09-15 11:53:00,
2014-09-15 05:58:00,34.5,30.6,29.97,NNE,23,0.0,0.0,86,0.00,,,0.00,WUHU216HW,2014-09-15 11:58:00,
2014-09-15 06:03:00,34.5,30.6,29.97,NNE,23,0.0,0.0,86,0.00,,,0.00,WUHU216HW,2014-09-15 12:03:00,
2014-09-15 06:08:00,34.3,30.4,29.97,NNE,23,0.0,0.0,86,0.00,,,0.00,WUHU216HW,2014-09-15 12:08:00,
2014-09-15 06:13:00,34.3,30.4,29.97,NNE,23,0.0,0.0,86,0.00,,,0.00,WUHU216HW,2014-09-15 12:13:00,
2014-09-15 06:18:00,34.5,30.6,29.97,NNE,23,0.0,0.0,86,0.00,,,0.00,WUHU216HW,2014-09-15 12:18:00,
2014-09-15 06:23:00,34.5,30.6,29.97,NNE,23,0.0,0.0,86,0.00,,,0.00,WUHU216HW,2014-09-15 12:23:00,
2014-09-15 06:28:00,34.5,30.6,29.97,NNE,23,0.0,0.0,86,0.00,,,0.00,WUHU216HW,2014-09-15 12:28:00,
2014-09-15 06:33:00,34.7,30.8,29.96,NNE,23,0.0,0.0,86,0.00,,,0.00,WUHU216HW,2014-09-15 12:33:00,
2014-09-15 06:38:00,34.5,30.6,29.97,NNE,23,0.0,0.0,86,0.00,,,0.00,WUHU216HW,2014-09-15 12:38:00,
2014-09-15 06:43:00,34.5,30.9,29.97,NNE,23,0.0,0.0,87,0.00,,,0.00,WUHU216HW,2014-09-15 12:43:00,
2014-09-15 06:48:00,34.5,30.9,29.97,NNE,23,0.0,0.0,87,0.00,,,0.00,WUHU216HW,2014-09-15 12:48:00,
2014-09-15 06:53:00,34.7,31.1,29.98,NNE,23,0.0,0.0,87,0.00,,,0.00,WUHU216HW,2014-09-15 12:53:00,
2014-09-15 06:58:00,34.7,31.1,29.98,NNE,23,0.0,0.0,87,0.00,,,0.00,WUHU216HW,2014-09-15 12:58:00,
2014-09-15 07:03:00,34.5,30.9,29.98,NNE,23,0.0,0.0,87,0.00,,,0.00,WUHU216HW,2014-09-15 13:03:00,
2014-09-15 07:08:00,34.7,31.1,29.97,NNE,23,0.0,0.0,87,0.00,,,0.00,WUHU216HW,2014-09-15 13:08:00,
2014-09-15 07:13:00,35.2,31.9,29.97,NNE,23,0.0,0.0,88,0.00,,,0.00,WUHU216HW,2014-09-15 13:13:00,
2014-09-15 07:18:00,35.4,32.1,29.97,NNE,23,0.0,0.0,88,0.00,,,0.00,WUHU216HW,2014-09-15 13:18:00,
2014-09-15 07:23:00,35.7,32.5,29.98,NNE,23,0.0,0.0,88,0.00,,,0.00,WUHU216HW,2014-09-15 13:23:00,
2014-09-15 07:28:00,36.3,33.0,29.97,NNE,23,0.0,0.0,88,0.00,,,0.00,WUHU216HW,2014-09-15 13:28:00,
2014-09-15 07:33:00,36.6,33.6,29.97,NNE,23,0.0,0.0,89,0.00,,,0.00,WUHU216HW,2014-09-15 13:33:00,
2014-09-15 07:38:00,37.0,34.0,29.97,NNE,23,0.0,0.0,89,0.00,,,0.00,WUHU216HW,2014-09-15 13:38:00,
2014-09-15 07:43:00,37.7,34.7,29.97,NNE,23,0.0,0.0,89,0.00,,,0.00,WUHU216HW,2014-09-15 13:43:00,
2014-09-15 07:48:00,38.1,35.1,29.97,NNE,23,0.0,0.0,89,0.00,,,0.00,WUHU216HW,2014-09-15 13:48:00,
2014-09-15 07:53:00,38.8,35.8,29.97,NNE,23,0.0,0.0,89,0.00,,,0.00,WUHU216HW,2014-09-15 13:53:00,
2014-09-15 07:58:00,39.7,36.7,29.97,NNE,23,0.0,0.0,89,0.00,,,0.00,WUHU216HW,2014-09-15 13:58:00,
2014-09-15 08:03:00,40.6,37.6,29.97,NNE,23,0.0,0.0,89,0.00,,,0.00,WUHU216HW,2014-09-15 14:03:00,
2014-09-15 08:08:00,41.1,38.1,29.97,NNE,23,0.0,0.0,89,0.00,,,0.00,WUHU216HW,2014-09-15 14:08:00,
2014-09-15 08:13:00,42.0,38.7,29.97,NNE,23,0.0,0.0,88,0.00,,,0.00,WUHU216HW,2014-09-15 14:13:00,
2014-09-15 08:18:00,42.8,39.1,29.97,NNE,23,0.0,0.0,87,0.00,,,0.00,WUHU216HW,2014-09-15 14:18:00,
2014-09-15 08:23:00,43.5,39.5,29.97,NNE,23,0.0,0.0,86,0.00,,,0.00,WUHU216HW,2014-09-15 14:23:00,
2014-09-15 08:28:00,44.4,40.1,29.97,NNE,23,0.0,0.0,85,0.00,,,0.00,WUHU216HW,2014-09-15 14:28:00,
2014-09-15 08:33:00,45.1,40.6,29.97,NNE,23,0.0,0.0,84,0.00,,,0.00,WUHU216HW,2014-09-15 14:33:00,
2014-09-15 08:38:00,45.8,41.0,29.96,NNE,23,0.0,0.0,83,0.00,,,0.00,WUHU216HW,2014-09-15 14:38:00,
2014-09-15 08:43:00,47.1,41.2,29.97,NNE,23,0.0,0.0,80,0.00,,,0.00,WUHU216HW,2014-09-15 14:43:00,
2014-09-15 08:48:00,47.8,41.5,29.97,NNE,23,0.0,0.0,79,0.00,,,0.00,WUHU216HW,2014-09-15 14:48:00,
2014-09-15 08:53:00,48.5,41.9,29.96,NNE,23,0.0,0.0,78,0.00,,,0.00,WUHU216HW,2014-09-15 14:53:00,
2014-09-15 08:58:00,49.6,42.3,29.96,NNE,23,0.0,0.0,76,0.00,,,0.00,WUHU216HW,2014-09-15 14:58:00,
2014-09-15 09:03:00,50.1,42.1,29.96,NNE,23,0.0,0.0,74,0.00,,,0.00,WUHU216HW,2014-09-15 15:03:00,
2014-09-15 09:08:00,50.5,42.2,29.96,NNE,23,0.0,0.0,73,0.00,,,0.00,WUHU216HW,2014-09-15 15:08:00,
2014-09-15 09:13:00,51.0,42.4,29.96,NNE,23,0.0,0.0,72,0.00,,,0.00,WUHU216HW,2014-09-15 15:13:00,
2014-09-15 09:18:00,51.8,42.4,29.96,NNE,23,0.0,0.0,70,0.00,,,0.00,WUHU216HW,2014-09-15 15:18:00,
2014-09-15 09:23:00,52.3,42.9,29.96,NNE,23,0.0,0.0,70,0.00,,,0.00,WUHU216HW,2014-09-15 15:23:00,
2014-09-15 09:28:00,53.2,42.5,29.95,NNE,23,0.0,0.0,67,0.00,,,0.00,WUHU216HW,2014-09-15 15:28:00,
2014-09-15 09:33:00,53.4,42.6,29.96,NNE,23,0.0,0.0,67,0.00,,,0.00,WUHU216HW,2014-09-15 15:33:00,
2014-09-15 09:38:00,53.9,42.8,29.95,NNE,23,0.0,0.0,66,0.00,,,0.00,WUHU216HW,2014-09-15 15:38:00,
2014-09-15 09:43:00,54.5,42.5,29.95,NNE,23,0.0,0.0,64,0.00,,,0.00,WUHU216HW,2014-09-15 15:43:00,
2014-09-15 09:48:00,54.8,42.4,29.95,NNE,23,0.0,0.0,63,0.00,,,0.00,WUHU216HW,2014-09-15 15:48:00,
2014-09-15 09:53:00,55.2,42.7,29.95,NNE,23,0.0,0.0,63,0.00,,,0.00,WUHU216HW,2014-09-15 15:53:00,
2014-09-15 09:58:00,56.3,43.4,29.95,NNE,23,0.0,0.0,62,0.00,,,0.00,WUHU216HW,2014-09-15 15:58:00,
2014-09-15 10:03:00,56.8,43.5,29.95,NNE,23,0.0,0.0,61,0.00,,,0.00,WUHU216HW,2014-09-15 16:03:00,
2014-09-15 10:08:00,57.3,43.2,29.94,NNE,23,0.0,0.0,59,0.00,,,0.00,WUHU216HW,2014-09-15 16:08:00,
2014-09-15 10:13:00,58.4,43.7,29.94,NNE,23,0.0,0.0,58,0.00,,,0.00,WUHU216HW,2014-09-15 16:13:00,
2014-09-15 10:18:00,58.8,43.1,29.94,NNE,23,0.0,0.0,56,0.00,,,0.00,WUHU216HW,2014-09-15 16:18:00,
2014-09-15 10:23:00,58.8,43.1,29.94,NNE,23,0.0,0.0,56,0.00,,,0.00,WUHU216HW,2014-09-15 16:23:00,
2014-09-15 10:28:00,59.9,43.6,29.94,NNE,23,0.0,0.0,55,0.00,,,0.00,WUHU216HW,2014-09-15 16:28:00,
2014-09-15 10:33:00,60.4,44.1,29.94,NNE,23,0.0,0.0,55,0.00,,,0.00,WUHU216HW,2014-09-15 16:33:00,
2014-09-15 10:38:00,60.9,44.1,29.93,NNE,23,0.0,0.0,54,0.00,,,0.00,WUHU216HW,2014-09-15 16:38:00,
2014-09-15 10:43:00,61.8,44.0,29.93,NNE,23,0.0,0.0,52,0.00,,,0.00,WUHU216HW,2014-09-15 16:43:00,
2014-09-15 10:48:00,62.4,43.5,29.93,NNE,23,0.0,0.0,50,0.00,,,0.00,WUHU216HW,2014-09-15 16:48:00,
2014-09-15 10:53:00,62.7,43.2,29.93,NNE,23,0.0,0.0,49,0.00,,,0.00,WUHU216HW,2014-09-15 16:53:00,
2014-09-15 10:58:00,63.1,43.0,29.93,NNE,23,0.0,0.0,48,0.00,,,0.00,WUHU216HW,2014-09-15 16:58:00,
2014-09-15 11:03:00,63.3,43.1,29.94,NNE,23,0.0,0.0,48,0.00,,,0.00,WUHU216HW,2014-09-15 17:03:00,
2014-09-15 11:08:00,64.0,43.8,29.94,NNE,23,0.0,0.0,48,0.00,,,0.00,WUHU216HW,2014-09-15 17:08:00,
2014-09-15 11:13:00,64.7,43.3,29.94,NNE,23,0.0,0.0,46,0.00,,,0.00,WUHU216HW,2014-09-15 17:13:00,
2014-09-15 11:18:00,65.1,43.1,29.93,NNE,23,0.0,0.0,45,0.00,,,0.00,WUHU216HW,2014-09-15 17:18:00,
2014-09-15 11:23:00,65.4,42.8,29.93,NNE,23,0.0,0.0,44,0.00,,,0.00,WUHU216HW,2014-09-15 17:23:00,
2014-09-15 11:28:00,66.3,43.1,29.93,NNE,23,0.0,0.0,43,0.00,,,0.00,WUHU216HW,2014-09-15 17:28:00,
2014-09-15 11:33:00,66.7,42.2,29.93,NNE,23,0.0,0.0,41,0.00,,,0.00,WUHU216HW,2014-09-15 17:33:00,
2014-09-15 11:39:00,66.9,43.0,29.93,NNE,23,0.0,0.0,42,0.00,,,0.00,WUHU216HW,2014-09-15 17:39:00,
2014-09-15 11:44:00,67.8,43.8,29.92,NNE,23,0.0,0.0,42,0.00,,,0.00,WUHU216HW,2014-09-15 17:44:00,
2014-09-15 11:49:00,68.1,42.9,29.93,NNE,23,0.0,0.0,40,0.00,,,0.00,WUHU216HW,2014-09-15 17:49:00,
2014-09-15 11:54:00,68.3,42.3,29.92,NNE,23,0.0,0.0,39,0.00,,,0.00,WUHU216HW,2014-09-15 17:54:00,
2014-09-15 11:59:00,69.0,42.2,29.92,NNE,23,0.0,0.0,38,0.00,,,0.00,WUHU216HW,2014-09-15 17:59:00,
2014-09-15 12:04:00,69.4,42.6,29.92,NNE,23,0.0,0.0,38,0.00,,,0.00,WUHU216HW,2014-09-15 18:04:00,
2014-09-15 12:09:00,69.6,42.0,29.92,NNE,23,0.0,0.0,37,0.00,,,0.00,WUHU216HW,2014-09-15 18:09:00,
2014-09-15 12:14:00,69.6,41.3,29.91,NNE,23,0.0,0.0,36,0.00,,,0.00,WUHU216HW,2014-09-15 18:14:00,
2014-09-15 12:19:00,69.9,41.6,29.91,NNE,23,0.0,0.0,36,0.00,,,0.00,WUHU216HW,2014-09-15 18:19:00,
2014-09-15 12:24:00,70.1,42.5,29.91,NNE,23,0.6,0.6,37,0.00,,,0.00,WUHU216HW,2014-09-15 18:24:00,
2014-09-15 12:29:00,70.5,42.1,29.91,NNE,23,0.0,0.6,36,0.00,,,0.00,WUHU216HW,2014-09-15 18:29:00,
2014-09-15 12:34:00,70.8,41.7,29.91,NNE,23,0.0,0.0,35,0.00,,,0.00,WUHU216HW,2014-09-15 18:34:00,
2014-09-15 12:39:00,71.2,41.2,29.91,NNE,23,0.0,0.0,34,0.00,,,0.00,WUHU216HW,2014-09-15 18:39:00,
2014-09-15 12:44:00,71.6,41.6,29.91,NNE,23,0.0,0.0,34,0.00,,,0.00,WUHU216HW,2014-09-15 18:44:00,
2014-09-15 12:49:00,71.9,41.9,29.90,NNE,23,0.0,0.0,34,0.00,,,0.00,WUHU216HW,2014-09-15 18:49:00,
2014-09-15 12:54:00,72.5,42.3,29.90,NNE,23,0.0,0.0,34,0.00,,,0.00,WUHU216HW,2014-09-15 18:54:00,
2014-09-15 12:59:00,72.5,42.3,29.90,NNE,23,0.0,0.0,34,0.00,,,0.00,WUHU216HW,2014-09-15 18:59:00,
2014-09-15 13:04:00,72.8,42.6,29.90,NNE,23,0.0,0.0,34,0.00,,,0.00,WUHU216HW,2014-09-15 19:04:00,
2014-09-15 13:09:00,73.4,43.1,29.90,NNE,23,0.0,0.0,34,0.00,,,0.00,WUHU216HW,2014-09-15 19:09:00,
2014-09-15 13:14:00,73.2,41.4,29.89,NNE,23,0.0,0.0,32,0.00,,,0.00,WUHU216HW,2014-09-15 19:14:00,
2014-09-15 13:19:00,73.2,42.2,29.90,NNE,23,0.0,0.0,33,0.00,,,0.00,WUHU216HW,2014-09-15 19:19:00,
2014-09-15 13:24:00,73.0,41.3,29.89,NNE,23,0.0,0.0,32,0.00,,,0.00,WUHU216HW,2014-09-15 19:24:00,
2014-09-15 13:29:00,73.0,42.0,29.89,NNE,23,0.0,0.0,33,0.00,,,0.00,WUHU216HW,2014-09-15 19:29:00,
2014-09-15 13:34:00,73.2,42.2,29.88,NNE,23,0.0,1.5,33,0.00,,,0.00,WUHU216HW,2014-09-15 19:34:00,
2014-09-15 13:39:00,73.9,42.0,29.88,NNE,23,0.0,1.5,32,0.00,,,0.00,WUHU216HW,2014-09-15 19:39:00,
2014-09-15 13:44:00,74.1,42.2,29.88,NNE,23,0.0,6.4,32,0.00,,,0.00,WUHU216HW,2014-09-15 19:44:00,
2014-09-15 13:49:00,74.4,41.8,29.88,NNE,23,4.0,6.4,31,0.00,,,0.00,WUHU216HW,2014-09-15 19:49:00,
2014-09-15 13:54:00,74.8,42.1,29.88,NNE,23,2.2,4.0,31,0.00,,,0.00,WUHU216HW,2014-09-15 19:54:00,
2014-09-15 13:59:00,75.5,42.0,29.88,NNE,23,1.1,4.2,30,0.00,,,0.00,WUHU216HW,2014-09-15 19:59:00,
2014-09-15 14:04:00,75.7,42.2,29.87,NNE,23,0.0,4.2,30,0.00,,,0.00,WUHU216HW,2014-09-15 20:04:00,
2014-09-15 14:09:00,76.2,41.6,29.87,NNE,23,2.2,2.6,29,0.00,,,0.00,WUHU216HW,2014-09-15 20:09:00,
2014-09-15 14:14:00,76.6,43.0,29.87,NNE,23,2.0,5.1,30,0.00,,,0.00,WUHU216HW,2014-09-15 20:14:00,
2014-09-15 14:19:00,76.6,43.0,29.87,NNE,23,0.0,5.1,30,0.00,,,0.00,WUHU216HW,2014-09-15 20:19:00,
2014-09-15 14:24:00,77.0,42.2,29.87,NNE,23,0.0,5.5,29,0.00,,,0.00,WUHU216HW,2014-09-15 20:24:00,
2014-09-15 14:29:00,77.5,41.6,29.86,NNE,23,0.0,5.5,28,0.00,,,0.00,WUHU216HW,2014-09-15 20:29:00,
2014-09-15 14:34:00,77.5,41.6,29.86,NNE,23,5.3,5.3,28,0.00,,,0.00,WUHU216HW,2014-09-15 20:34:00,
2014-09-15 14:39:00,77.7,41.8,29.86,NNE,23,0.0,5.3,28,0.00,,,0.00,WUHU216HW,2014-09-15 20:39:00,
2014-09-15 14:44:00,78.0,41.0,29.86,NNE,23,3.1,3.8,27,0.00,,,0.00,WUHU216HW,2014-09-15 20:44:00,
2014-09-15 14:49:00,77.9,41.9,29.85,NNE,23,0.0,3.1,28,0.00,,,0.00,WUHU216HW,2014-09-15 20:49:00,
2014-09-15 14:54:00,77.7,41.8,29.86,NNE,23,2.4,3.3,28,0.00,,,0.00,WUHU216HW,2014-09-15 20:54:00,
2014-09-15 14:59:00,77.9,40.9,29.85,NNE,23,6.9,6.9,27,0.00,,,0.00,WUHU216HW,2014-09-15 20:59:00,
2014-09-15 15:04:00,77.5,40.6,29.85,NNE,23,5.1,6.9,27,0.00,,,0.00,WUHU216HW,2014-09-15 21:04:00,
2014-09-15 15:09:00,77.9,40.7,29.85,NNE,23,5.1,6.9,27,0.00,,,0.00,WUHU216HW,2014-09-15 21:09:00,
2014-09-15 15:14:00,77.9,40.9,29.84,NNE,23,1.3,5.1,27,0.00,,,0.00,WUHU216HW,2014-09-15 21:14:00,
2014-09-15 15:19:00,78.0,41.0,29.84,NNE,23,1.1,6.4,27,0.00,,,0.00,WUHU216HW,2014-09-15 21:19:00,
2014-09-15 15:24:00,78.6,40.4,29.84,NNE,23,2.4,7.3,26,0.00,,,0.00,WUHU216HW,2014-09-15 21:24:00,
2014-09-15 15:29:00,78.6,41.5,29.84,NNE,23,1.1,7.3,27,0.00,,,0.00,WUHU216HW,2014-09-15 21:29:00,
2014-09-15 15:34:00,78.4,40.3,29.83,NNE,23,4.9,6.2,26,0.00,,,0.00,WUHU216HW,2014-09-15 21:34:00,
2014-09-15 15:39:00,78.6,41.5,29.83,NNE,23,2.4,6.2,27,0.00,,,0.00,WUHU216HW,2014-09-15 21:39:00,
2014-09-15 15:44:00,78.9,40.7,29.83,NNE,23,0.0,3.5,26,0.00,,,0.00,WUHU216HW,2014-09-15 21:44:00,
2014-09-15 15:49:00,79.1,40.9,29.83,NNE,23,0.0,2.6,26,0.00,,,0.00,WUHU216HW,2014-09-15 21:49:00,
2014-09-15 15:54:00,78.6,40.4,29.83,NNE,23,6.2,6.2,26,0.00,,,0.00,WUHU216HW,2014-09-15 21:54:00,
2014-09-15 15:59:00,78.4,39.2,29.83,NNE,23,0.0,6.2,25,0.00,,,0.00,WUHU216HW,2014-09-15 21:59:00,
2014-09-15 16:04:00,77.9,38.8,29.83,NNE,23,0.0,6.2,25,0.00,,,0.00,WUHU216HW,2014-09-15 22:04:00,
2014-09-15 16:09:00,77.3,40.4,29.82,NNE,23,0.0,0.0,27,0.00,,,0.00,WUHU216HW,2014-09-15 22:09:00,
2014-09-15 16:14:00,77.1,40.3,29.82,NNE,23,0.0,4.2,27,0.00,,,0.00,WUHU216HW,2014-09-15 22:14:00,
2014-09-15 16:19:00,77.5,41.6,29.82,NNE,23,0.0,4.2,28,0.00,,,0.00,WUHU216HW,2014-09-15 22:19:00,
2014-09-15 16:24:00,79.3,41.0,29.82,NNE,23,3.3,4.6,26,0.00,,,0.00,WUHU216HW,2014-09-15 22:24:00,
2014-09-15 16:29:00,80.4,39.9,29.82,NNE,23,1.1,4.6,24,0.00,,,0.00,WUHU216HW,2014-09-15 22:29:00,
2014-09-15 16:34:00,80.9,39.3,29.81,NNE,23,0.0,3.3,23,0.00,,,0.00,WUHU216HW,2014-09-15 22:34:00,
2014-09-15 16:39:00,80.4,38.9,29.82,NNE,23,0.0,0.0,23,0.00,,,0.00,WUHU216HW,2014-09-15 22:39:00,
2014-09-15 16:44:00,79.7,39.3,29.82,NNE,23,0.0,0.0,24,0.00,,,0.00,WUHU216HW,2014-09-15 22:44:00,
2014-09-15 16:49:00,79.8,39.4,29.82,North,0,0.8,5.1,24,0.00,,,0.00,WUHU216HW,2014-09-15 22:49:00,
2014-09-15 16:54:00,80.4,38.9,29.81,North,0,2.6,6.2,23,0.00,,,0.00,WUHU216HW,2014-09-15 22:54:00,
2014-09-15 16:59:00,79.8,37.4,29.81,North,0,0.0,6.2,22,0.00,,,0.00,WUHU216HW,2014-09-15 22:59:00,
2014-09-15 17:04:00,79.1,37.7,29.81,North,0,0.8,2.6,23,0.00,,,0.00,WUHU216HW,2014-09-15 23:04:00,
2014-09-15 17:09:00,78.2,37.0,29.81,North,0,0.0,2.6,23,0.00,,,0.00,WUHU216HW,2014-09-15 23:09:00,
2014-09-15 17:14:00,77.7,37.6,29.81,North,0,0.0,0.0,24,0.00,,,0.00,WUHU216HW,2014-09-15 23:14:00,
2014-09-15 17:19:00,77.1,37.2,29.81,North,0,0.0,0.0,24,0.00,,,0.00,WUHU216HW,2014-09-15 23:19:00,
2014-09-15 17:24:00,76.4,37.6,29.81,North,0,0.0,0.0,25,0.00,,,0.00,WUHU216HW,2014-09-15 23:24:00,
2014-09-15 17:29:00,76.4,39.7,29.82,North,0,0.0,0.0,27,0.00,,,0.00,WUHU216HW,2014-09-15 23:29:00,
2014-09-15 17:34:00,77.0,37.0,29.81,North,0,15.6,21.6,24,0.00,,,0.00,WUHU216HW,2014-09-15 23:34:00,
2014-09-15 17:39:00,77.0,37.0,29.81,North,0,14.3,21.6,24,0.00,,,0.00,WUHU216HW,2014-09-15 23:39:00,
2014-09-15 17:44:00,76.6,36.9,29.81,NNE,23,0.0,15.6,24,0.00,,,0.00,WUHU216HW,2014-09-15 23:44:00,
2014-09-15 17:49:00,76.2,36.4,29.81,NNE,23,0.0,2.2,24,0.00,,,0.00,WUHU216HW,2014-09-15 23:49:00,
2014-09-15 17:54:00,76.4,37.6,29.81,NNE,23,0.0,0.0,25,0.00,,,0.00,WUHU216HW,2014-09-15 23:54:00,
2014-09-15 17:59:00,77.3,38.4,29.81,NNE,23,0.0,0.0,25,0.00,,,0.00,WUHU216HW,2014-09-15 23:59:00,
2014-09-15 18:04:00,78.0,38.9,29.81,NNE,23,0.0,0.0,25,0.00,,,0.00,WUHU216HW,2014-09-16 00:04:00,
2014-09-15 18:09:00,78.6,38.3,29.80,NNE,23,0.0,0.0,24,0.00,,,0.00,WUHU216HW,2014-09-16 00:09:00,
2014-09-15 18:14:00,78.8,37.4,29.80,NNE,23,0.4,0.4,23,0.00,,,0.00,WUHU216HW,2014-09-16 00:14:00,
2014-09-15 18:19:00,78.9,36.5,29.80,NNE,23,0.0,0.4,22,0.00,,,0.00,WUHU216HW,2014-09-16 00:19:00,
2014-09-15 18:24:00,78.6,37.3,29.80,NNE,23,0.0,0.4,23,0.00,,,0.00,WUHU216HW,2014-09-16 00:24:00,
2014-09-15 18:29:00,78.0,36.8,29.80,NNE,23,0.0,0.0,23,0.00,,,0.00,WUHU216HW,2014-09-16 00:29:00,
2014-09-15 18:34:00,77.7,37.6,29.80,NNE,23,0.0,0.0,24,0.00,,,0.00,WUHU216HW,2014-09-16 00:34:00,
2014-09-15 18:39:00,77.3,37.3,29.80,NNE,23,0.0,0.0,24,0.00,,,0.00,WUHU216HW,2014-09-16 00:39:00,
2014-09-15 18:44:00,76.8,37.8,29.80,North,0,1.5,2.4,25,0.00,,,0.00,WUHU216HW,2014-09-16 00:44:00,
2014-09-15 18:49:00,75.9,38.2,29.80,North,0,0.0,2.4,26,0.00,,,0.00,WUHU216HW,2014-09-16 00:49:00,
2014-09-15 18:54:00,75.2,38.6,29.80,NNE,23,0.0,1.5,27,0.00,,,0.00,WUHU216HW,2014-09-16 00:54:00,
2014-09-15 18:59:00,74.3,38.8,29.80,North,0,0.0,2.6,28,0.00,,,0.00,WUHU216HW,2014-09-16 00:59:00,
2014-09-15 19:04:00,73.5,38.2,29.80,North,0,2.4,2.6,28,0.00,,,0.00,WUHU216HW,2014-09-16 01:04:00,
2014-09-15 19:09:00,72.6,38.4,29.80,North,0,4.6,4.6,29,0.00,,,0.00,WUHU216HW,2014-09-16 01:09:00,
2014-09-15 19:14:00,72.1,38.0,29.80,North,0,0.0,4.9,29,0.00,,,0.00,WUHU216HW,2014-09-16 01:14:00,
2014-09-15 19:19:00,70.8,36.9,29.80,North,0,0.0,4.9,29,0.00,,,0.00,WUHU216HW,2014-09-16 01:19:00,
2014-09-15 19:24:00,69.8,37.0,29.80,North,0,0.0,0.0,30,0.00,,,0.00,WUHU216HW,2014-09-16 01:24:00,
2014-09-15 19:29:00,69.0,37.8,29.81,North,0,0.0,0.0,32,0.00,,,0.00,WUHU216HW,2014-09-16 01:29:00,
2014-09-15 19:34:00,68.7,37.5,29.81,North,0,0.0,0.0,32,0.00,,,0.00,WUHU216HW,2014-09-16 01:34:00,
2014-09-15 19:39:00,68.1,37.0,29.81,North,0,0.0,0.0,32,0.00,,,0.00,WUHU216HW,2014-09-16 01:39:00,
2014-09-15 19:44:00,67.6,36.7,29.81,North,0,0.0,0.0,32,0.00,,,0.00,WUHU216HW,2014-09-16 01:44:00,
2014-09-15 19:49:00,67.6,37.3,29.81,NNE,23,6.7,6.7,33,0.00,,,0.00,WUHU216HW,2014-09-16 01:49:00,
2014-09-15 19:54:00,68.0,37.6,29.81,NNE,23,7.6,7.6,33,0.00,,,0.00,WUHU216HW,2014-09-16 01:54:00,
2014-09-15 19:59:00,68.1,37.7,29.81,NNE,23,0.0,7.6,33,0.00,,,0.00,WUHU216HW,2014-09-16 01:59:00,
2014-09-15 20:04:00,68.1,38.5,29.81,NNE,23,0.0,7.6,34,0.00,,,0.00,WUHU216HW,2014-09-16 02:04:00,
2014-09-15 20:09:00,68.0,38.3,29.81,NNE,23,2.0,3.3,34,0.00,,,0.00,WUHU216HW,2014-09-16 02:09:00,
2014-09-15 20:14:00,67.4,40.1,29.81,NNE,23,5.1,7.3,37,0.00,,,0.00,WUHU216HW,2014-09-16 02:14:00,
2014-09-15 20:19:00,66.9,40.3,29.81,NNE,23,1.3,7.3,38,0.00,,,0.00,WUHU216HW,2014-09-16 02:19:00,
2014-09-15 20:24:00,66.2,40.4,29.81,NNE,23,1.1,5.1,39,0.00,,,0.00,WUHU216HW,2014-09-16 02:24:00,
2014-09-15 20:29:00,65.1,40.7,29.82,NNE,23,0.0,3.5,41,0.00,,,0.00,WUHU216HW,2014-09-16 02:29:00,
2014-09-15 20:34:00,64.2,40.5,29.82,NNE,23,0.6,3.5,42,0.00,,,0.00,WUHU216HW,2014-09-16 02:34:00,
2014-09-15 20:39:00,63.6,40.6,29.82,NNE,23,0.0,0.6,43,0.00,,,0.00,WUHU216HW,2014-09-16 02:39:00,
2014-09-15 20:44:00,62.7,40.9,29.82,NNE,23,0.0,2.2,45,0.00,,,0.00,WUHU216HW,2014-09-16 02:44:00,
2014-09-15 20:49:00,62.0,40.9,29.82,NNE,23,0.0,2.2,46,0.00,,,0.00,WUHU216HW,2014-09-16 02:49:00,
2014-09-15 20:54:00,61.5,41.0,29.82,NNE,23,0.0,0.0,47,0.00,,,0.00,WUHU216HW,2014-09-16 02:54:00,
2014-09-15 20:59:00,60.6,40.7,29.82,NNE,23,0.0,0.0,48,0.00,,,0.00,WUHU216HW,2014-09-16 02:59:00,
2014-09-15 21:04:00,60.0,40.8,29.82,NNE,23,0.0,0.0,49,0.00,,,0.00,WUHU216HW,2014-09-16 03:04:00,
2014-09-15 21:09:00,59.7,41.1,29.82,NNE,23,0.0,0.0,50,0.00,,,0.00,WUHU216HW,2014-09-16 03:09:00,
2014-09-15 21:14:00,59.1,41.0,29.82,NNE,23,0.0,0.0,51,0.00,,,0.00,WUHU216HW,2014-09-16 03:14:00,
2014-09-15 21:19:00,58.8,41.2,29.82,NNE,23,0.0,0.0,52,0.00,,,0.00,WUHU216HW,2014-09-16 03:19:00,
2014-09-15 21:24:00,58.6,41.5,29.82,NNE,23,0.0,0.0,53,0.00,,,0.00,WUHU216HW,2014-09-16 03:24:00,
2014-09-15 21:29:00,58.2,41.6,29.82,NNE,23,0.0,0.0,54,0.00,,,0.00,WUHU216HW,2014-09-16 03:29:00,
2014-09-15 21:34:00,57.9,41.3,29.82,NNE,23,0.0,0.0,54,0.00,,,0.00,WUHU216HW,2014-09-16 03:34:00,
2014-09-15 21:39:00,57.3,41.3,29.82,NNE,23,0.0,0.0,55,0.00,,,0.00,WUHU216HW,2014-09-16 03:39:00,
2014-09-15 21:44:00,56.8,40.8,29.82,NNE,23,0.0,0.0,55,0.00,,,0.00,WUHU216HW,2014-09-16 03:44:00,
2014-09-15 21:49:00,56.6,41.5,29.82,NNE,23,0.0,0.0,57,0.00,,,0.00,WUHU216HW,2014-09-16 03:49:00,
2014-09-15 21:54:00,56.4,41.3,29.82,NNE,23,0.0,0.0,57,0.00,,,0.00,WUHU216HW,2014-09-16 03:54:00,
2014-09-15 21:59:00,56.4,41.8,29.82,NNE,23,0.0,0.0,58,0.00,,,0.00,WUHU216HW,2014-09-16 03:59:00,
2014-09-15 22:04:00,56.4,41.8,29.82,NNE,23,0.0,0.0,58,0.00,,,0.00,WUHU216HW,2014-09-16 04:04:00,
2014-09-15 22:09:00,56.1,41.5,29.82,NNE,23,0.0,0.0,58,0.00,,,0.00,WUHU216HW,2014-09-16 04:09:00,
2014-09-15 22:14:00,55.9,42.2,29.82,NNE,23,0.0,0.0,60,0.00,,,0.00,WUHU216HW,2014-09-16 04:14:00,
2014-09-15 22:19:00,55.9,41.7,29.82,NNE,23,0.0,0.0,59,0.00,,,0.00,WUHU216HW,2014-09-16 04:19:00,
2014-09-15 22:24:00,55.5,41.9,29.83,NNE,23,0.0,0.0,60,0.00,,,0.00,WUHU216HW,2014-09-16 04:24:00,
2014-09-15 22:29:00,54.8,40.7,29.83,NNE,23,0.0,0.0,59,0.00,,,0.00,WUHU216HW,2014-09-16 04:29:00,
2014-09-15 22:35:00,54.1,40.5,29.83,NNE,23,0.0,0.0,60,0.00,,,0.00,WUHU216HW,2014-09-16 04:35:00,
2014-09-15 22:40:00,53.7,40.6,29.83,NNE,23,0.0,0.0,61,0.00,,,0.00,WUHU216HW,2014-09-16 04:40:00,
2014-09-15 22:45:00,52.8,40.1,29.83,NNE,23,0.0,0.0,61,0.00,,,0.00,WUHU216HW,2014-09-16 04:45:00,
2014-09-15 22:50:00,52.5,39.4,29.83,NNE,23,0.0,0.0,61,0.00,,,0.00,WUHU216HW,2014-09-16 04:50:00,
2014-09-15 22:55:00,52.3,39.6,29.83,NNE,23,0.0,0.0,62,0.00,,,0.00,WUHU216HW,2014-09-16 04:55:00,
2014-09-15 23:00:00,51.9,40.1,29.83,NNE,23,0.0,0.0,64,0.00,,,0.00,WUHU216HW,2014-09-16 05:00:00,
2014-09-15 23:05:00,51.9,40.5,29.83,NNE,23,0.0,0.0,65,0.00,,,0.00,WUHU216HW,2014-09-16 05:05:00,
2014-09-15 23:10:00,51.9,40.5,29.83,NNE,23,0.0,0.0,65,0.00,,,0.00,WUHU216HW,2014-09-16 05:10:00,
2014-09-15 23:15:00,52.1,40.7,29.83,NNE,23,0.0,0.0,65,0.00,,,0.00,WUHU216HW,2014-09-16 05:15:00,
2014-09-15 23:20:00,52.1,40.7,29.83,NNE,23,0.0,0.0,65,0.00,,,0.00,WUHU216HW,2014-09-16 05:20:00,